Wind_Speed
27 26 25 24 24 24 23 20 19 19 19 18 16 14 13 11 10 9 8 7 6 6 5 5 6 6 7 7 8 8 8 9 9 9 9 9 9 9 8 8 9 9 9 9
28 27 26 26 26 25 24 21 20 21 21 20 19 17 15 13 11 11 10 9 8 6 6 6 6 7 8 8 9 9 9 9 9 8 9 9 10 10 9 9 9 9 9 10
27 26 28 28 27 26 24 22 22 23 23 22 20 19 17 15 14 13 12 11 9 8 7 7 7 8 9 9 9 9 9 9 8 9 9 9 9 10 10 10 10 9 9 10
29 29 29 28 27 26 24 23 24 24 24 22 21 19 17 15 14 13 12 11 11 10 9 9 9 9 9 10 10 10 10 10 9 8 8 9 10 10 10 10 9 10 10 11
29 29 29 28 27 26 24 25 26 26 25 24 22 20 17 16 14 12 12 12 12 12 12 11 11 11 11 11 11 11 11 11 9 9 9 9 10 10 11 10 10 10 11 11
30 30 30 29 28 28 28 28 28 27 27 25 22 21 17 16 14 13 11 12 13 13 13 13 13 12 12 12 12 12 12 11 10 9 10 10 11 11 11 11 11 11 11 11
30 30 30 30 30 30 30 30 30 30 29 27 23 22 18 16 15 14 13 13 14 15 14 13 13 13 13 13 13 13 12 12 11 11 11 11 11 11 11 12 12 12 12 12
29 30 30 30 30 30 30 30 30 30 29 27 24 22 18 16 16 15 15 15 15 14 13 13 13 13 14 14 13 13 12 12 12 12 12 12 12 12 12 12 13 13 13 13
28 28 29 29 30 30 31 31 30 30 30 28 25 22 20 18 17 15 15 14 14 13 13 13 14 15 14 14 14 13 12 12 12 13 13 13 12 13 14 14 14 14 14 14
28 28 28 29 31 31 31 31 30 30 30 28 26 23 21 19 18 17 16 14 13 12 12 13 13 15 14 13 13 12 11 11 12 13 13 13 13 14 14 14 14 14 14 13
28 29 29 30 31 31 31 31 31 30 30 28 26 23 20 18 18 17 15 14 14 13 12 12 13 14 12 13 12 11 11 11 11 12 13 13 13 13 12 13 14 14 14 14
27 28 28 29 30 31 31 30 29 29 29 28 26 22 20 18 17 16 14 14 13 13 13 13 13 13 13 13 12 11 10 11 11 11 12 12 13 14 14 13 13 14 14 14
27 27 28 29 30 31 31 30 30 29 28 28 25 22 20 19 17 16 15 15 14 14 13 13 13 13 14 14 13 12 11 11 12 12 12 12 13 14 14 13 13 13 14 13
26 27 27 27 27 28 30 30 29 29 28 26 25 22 21 20 18 17 16 16 16 15 14 13 13 14 14 15 14 13 13 13 13 13 13 13 14 14 14 14 14 14 14 14
27 27 27 27 27 28 29 29 29 29 28 27 24 22 21 21 20 18 17 17 17 16 15 14 14 13 14 15 15 14 15 15 15 15 14 14 14 15 16 15 15 15 15 15
27 28 27 27 28 28 29 29 29 28 28 27 25 24 22 21 21 19 18 17 16 16 15 15 15 15 14 14 15 16 16 16 16 15 15 15 16 16 15 15 15 15 16 16
27 27 27 27 28 29 29 29 29 28 27 26 25 23 23 23 21 20 19 17 16 16 16 16 16 15 15 16 16 16 17 17 17 16 16 16 16 16 16 16 15 15 16 16
28 27 27 27 28 30 29 28 28 28 27 26 24 23 23 22 22 22 21 20 18 17 16 16 16 16 17 17 16 16 16 16 16 16 16 16 16 16 14 14 14 15 15 15
29 29 28 28 29 30 29 28 28 28 27 26 24 23 22 22 22 21 21 21 20 18 16 15 15 16 16 16 16 17 18 17 16 16 16 16 15 15 14 15 15 15 15 15
31 31 31 30 29 29 29 28 29 28 28 25 25 23 22 22 21 20 20 21 19 18 16 16 16 16 15 15 16 17 17 17 16 16 16 16 15 15 15 15 16 15 16 16
33 33 32 32 31 28 27 28 28 29 26 25 25 24 22 22 21 21 22 21 21 19 18 17 17 17 16 15 15 16 16 16 15 15 16 16 16 16 15 15 16 17 17 18
33 33 34 33 31 29 27 27 27 27 26 27 26 25 24 23 22 22 22 21 21 19 19 18 18 17 16 16 16 16 16 16 15 16 17 17 16 16 17 17 17 18 18 18
35 34 33 32 32 30 28 27 27 27 26 26 27 26 25 24 24 23 22 22 21 20 20 19 18 18 17 16 15 15 16 16 17 17 17 17 16 16 17 18 19 19 19 20
35 34 34 33 31 30 28 28 27 26 26 25 25 26 25 25 25 26 24 23 22 21 20 20 19 18 17 16 16 16 16 16 16 17 17 17 18 18 18 19 20 20 20 21
35 33 33 32 31 30 29 28 27 26 25 25 26 25 26 26 26 25 24 23 23 21 19 18 18 17 17 17 17 17 17 17 17 18 18 18 18 18 19 19 19 20 20 22
34 33 32 31 30 30 29 28 27 26 26 25 25 25 25 25 25 25 24 23 22 22 20 19 18 17 17 17 17 17 17 17 17 18 18 18 18 18 19 20 20 21 22 23
Wind_Direction
228 228 229 229 229 230 230 232 235 239 242 244 246 243 241 241 250 253 255 267 278 282 282 277 275 275 276 278 280 282 271 270 259 251 251 247 246 250 253 258 263 267 265 265
227 227 226 227 228 229 229 230 231 235 240 243 242 239 237 240 246 250 251 256 268 272 275 273 274 276 278 279 282 283 277 270 264 258 256 252 248 251 255 257 263 264 260 258
227 225 225 226 227 228 229 228 229 233 239 243 243 241 241 242 240 243 247 251 259 268 270 268 275 280 279 279 279 281 277 270 263 265 260 255 253 247 254 257 258 263 260 258
223 223 224 225 226 227 228 226 228 232 236 239 240 241 243 243 241 242 246 250 257 266 266 266 271 277 278 276 272 272 271 267 261 262 258 252 256 254 255 258 255 261 263 258
223 223 224 224 224 225 225 225 227 230 235 239 243 244 243 244 243 246 250 253 257 265 266 267 269 272 274 273 271 268 266 261 256 255 253 252 255 257 259 259 256 260 263 259
221 222 222 222 221 221 222 224 226 229 235 239 243 247 244 244 246 248 251 256 261 265 264 265 266 270 272 270 270 268 263 255 256 255 252 254 258 258 257 259 259 263 265 260
221 221 221 220 220 221 222 224 226 229 234 239 242 246 245 244 245 247 249 257 262 265 267 268 267 267 266 264 266 263 261 258 256 256 255 256 261 258 258 260 262 264 266 261
221 220 221 221 221 222 223 226 229 233 237 241 242 245 246 245 248 249 252 258 263 267 270 268 266 266 264 259 261 258 256 259 258 259 260 260 260 259 262 263 265 266 265 263
219 220 220 220 220 221 223 225 228 233 238 242 243 244 247 249 252 253 258 261 262 265 270 268 263 265 263 258 260 258 255 256 260 263 263 262 259 261 263 264 264 265 263 262
217 217 217 218 218 219 221 224 228 232 237 241 244 245 247 250 252 255 260 261 262 263 268 262 263 261 260 258 257 258 262 266 267 267 263 263 259 262 264 265 263 261 259 258
215 216 215 216 218 220 221 224 228 233 238 242 246 246 248 250 252 253 257 258 262 262 264 263 264 263 258 264 265 259 264 269 271 269 264 262 260 266 269 265 261 257 257 256
214 215 216 217 219 220 224 227 231 235 240 244 246 245 246 247 249 249 252 251 257 261 259 261 260 257 255 259 263 261 267 271 269 269 269 267 264 264 265 267 263 260 256 256
214 214 215 217 219 222 225 227 231 235 241 244 245 244 243 245 245 247 250 247 252 257 259 258 256 257 255 257 261 262 264 267 264 266 268 269 270 269 268 267 267 262 256 256
216 218 219 220 223 226 228 229 231 235 240 244 246 246 242 241 242 245 247 246 249 252 253 256 257 258 257 257 259 262 263 266 262 263 265 266 268 269 269 267 265 262 259 258
219 219 220 221 224 227 229 230 233 236 240 243 243 242 239 239 239 243 245 246 248 252 254 256 256 258 261 261 259 260 262 265 263 261 259 263 265 266 266 265 265 263 262 260
221 222 223 224 225 227 229 231 234 237 240 241 241 240 240 239 240 240 241 244 247 252 252 255 260 262 265 263 261 261 264 264 261 260 259 263 268 267 266 265 264 262 261 261
224 224 225 227 228 229 229 231 235 238 241 243 242 240 239 239 240 239 239 243 247 252 252 255 261 267 270 263 265 264 263 260 260 260 261 264 269 269 270 264 262 263 264 264
226 227 228 229 230 231 231 231 235 239 241 242 242 241 240 240 239 239 242 246 251 256 256 257 263 267 272 270 267 264 263 259 258 258 261 266 268 268 266 263 261 262 264 266
229 228 229 230 232 233 232 232 235 239 241 241 241 242 242 240 239 240 244 247 250 253 255 258 260 267 271 271 266 265 263 257 254 253 257 262 265 265 265 263 263 263 264 267
230 231 231 232 235 235 233 234 236 239 240 240 240 241 242 240 240 242 244 247 250 250 254 259 262 266 272 275 269 264 260 254 249 253 258 261 262 264 264 264 264 264 266 268
232 231 232 234 237 237 235 235 237 239 240 240 240 241 242 240 240 240 243 246 249 247 252 261 265 267 271 274 270 262 259 257 250 254 258 261 263 262 264 266 266 266 267 270
231 232 232 235 237 237 237 238 238 240 241 241 241 241 240 239 239 240 244 248 248 247 251 259 263 264 267 270 269 264 264 262 259 257 257 259 261 263 264 264 266 267 267 271
230 231 232 234 236 239 239 239 240 241 241 240 240 239 238 239 241 242 246 248 249 249 251 256 260 260 265 269 270 268 266 264 263 258 258 260 262 265 266 267 266 268 269 271
230 231 233 235 236 238 238 239 239 239 240 240 238 237 237 238 242 244 245 245 247 249 253 253 254 255 261 263 266 267 268 266 262 259 259 261 266 269 269 267 268 268 269 272
230 232 233 234 235 236 237 238 238 238 240 240 238 238 239 239 240 241 240 242 247 248 249 250 250 252 258 262 263 265 266 267 264 261 262 264 268 269 266 266 269 270 271 274
230 232 231 233 234 235 236 237 236 236 236 236 235 236 238 238 238 237 240 242 242 243 245 246 247 249 253 257 261 265 267 267 266 266 266 267 268 268 269 268 269 271 273 275
Height
5840 5845 5848 5852 5855 5858 5862 5865 5868 5870 5872 5874 5876 5878 5879 5880 5882 5883 5884 5884 5885 5885 5885 5885 5886 5886 5886 5886 5885 5885 5885 5886 5886 5887 5887 5887 5888 5889 5890 5890 5890 5891 5891 5891
5836 5840 5845 5847 5850 5854 5858 5862 5865 5867 5868 5871 5873 5875 5877 5878 5880 5881 5882 5883 5884 5884 5884 5884 5884 5884 5884 5884 5884 5884 5884 5884 5884 5884 5885 5885 5886 5887 5887 5887 5888 5888 5889 5889
5832 5837 5839 5843 5847 5851 5855 5859 5862 5863 5865 5867 5870 5873 5875 5876 5877 5878 5880 5881 5882 5882 5882 5882 5882 5883 5882 5882 5882 5882 5882 5882 5882 5882 5883 5883 5884 5885 5885 5885 5886 5886 5886 5887
5826 5831 5835 5839 5843 5847 5852 5855 5857 5859 5862 5864 5867 5869 5872 5874 5875 5876 5877 5878 5880 5880 5880 5880 5880 5881 5880 5880 5880 5880 5880 5880 5880 5880 5881 5882 5882 5882 5883 5884 5884 5884 5884 5885
5822 5826 5830 5835 5840 5844 5848 5850 5853 5855 5858 5861 5864 5866 5870 5871 5872 5874 5875 5876 5877 5878 5878 5878 5878 5878 5878 5877 5877 5877 5877 5878 5878 5879 5880 5880 5880 5881 5881 5881 5882 5882 5882 5882
5817 5821 5826 5831 5835 5839 5842 5846 5849 5851 5854 5858 5861 5863 5866 5868 5870 5871 5873 5873 5874 5875 5875 5875 5875 5876 5875 5875 5874 5874 5874 5875 5876 5876 5877 5878 5878 5878 5879 5879 5879 5880 5880 5880
5812 5817 5821 5826 5830 5834 5838 5842 5845 5848 5850 5854 5858 5860 5864 5866 5867 5868 5870 5870 5871 5871 5872 5872 5872 5873 5872 5872 5872 5872 5872 5872 5873 5874 5875 5875 5876 5876 5876 5877 5877 5877 5877 5877
5808 5813 5817 5822 5826 5830 5834 5839 5843 5845 5848 5851 5854 5856 5861 5863 5864 5865 5866 5867 5867 5868 5869 5869 5869 5869 5869 5869 5869 5868 5869 5870 5870 5871 5871 5872 5873 5873 5873 5874 5874 5874 5874 5875
5804 5809 5813 5818 5822 5826 5830 5833 5838 5841 5844 5847 5850 5854 5857 5859 5860 5862 5863 5864 5864 5865 5865 5866 5866 5866 5866 5866 5866 5866 5866 5866 5867 5868 5868 5868 5869 5870 5870 5871 5871 5871 5871 5872
5799 5804 5809 5813 5817 5821 5826 5830 5833 5836 5839 5842 5846 5850 5853 5855 5857 5859 5860 5861 5861 5862 5862 5862 5863 5863 5863 5863 5864 5864 5864 5864 5864 5864 5865 5865 5866 5866 5866 5867 5867 5868 5868 5869
5794 5800 5804 5808 5812 5817 5821 5825 5828 5832 5835 5838 5842 5848 5850 5851 5853 5855 5856 5857 5858 5859 5859 5859 5860 5860 5861 5861 5861 5861 5862 5861 5861 5861 5862 5863 5863 5863 5863 5863 5864 5864 5865 5866
5790 5795 5799 5804 5809 5812 5816 5821 5825 5828 5831 5834 5838 5845 5845 5847 5849 5850 5852 5853 5855 5855 5856 5856 5857 5858 5858 5858 5859 5858 5859 5859 5859 5859 5859 5860 5860 5860 5860 5860 5860 5861 5862 5862
5786 5791 5795 5799 5805 5808 5811 5816 5820 5824 5827 5829 5833 5841 5841 5843 5845 5847 5849 5850 5851 5852 5853 5853 5854 5855 5855 5856 5856 5855 5856 5856 5856 5857 5857 5857 5857 5857 5857 5857 5857 5857 5858 5859
5783 5787 5792 5796 5800 5804 5807 5811 5815 5818 5821 5825 5829 5834 5837 5839 5842 5843 5845 5846 5848 5848 5849 5850 5851 5852 5852 5852 5852 5852 5852 5852 5853 5853 5854 5854 5854 5854 5854 5854 5854 5854 5855 5855
5778 5782 5787 5791 5795 5799 5802 5806 5810 5813 5817 5821 5825 5828 5832 5835 5837 5839 5841 5843 5844 5845 5846 5847 5847 5848 5848 5848 5848 5848 5849 5849 5849 5850 5850 5850 5851 5851 5851 5851 5851 5851 5852 5852
5773 5778 5782 5786 5790 5793 5797 5801 5805 5808 5812 5815 5819 5824 5827 5830 5832 5835 5837 5839 5840 5841 5842 5843 5843 5844 5844 5844 5844 5844 5845 5845 5845 5846 5846 5846 5847 5847 5847 5847 5848 5848 5848 5848
5768 5773 5777 5781 5785 5788 5792 5796 5800 5803 5807 5811 5814 5819 5822 5825 5827 5830 5833 5835 5836 5837 5838 5839 5839 5840 5840 5840 5840 5840 5840 5841 5841 5842 5842 5843 5843 5843 5843 5843 5843 5844 5844 5844
5763 5767 5772 5776 5780 5783 5790 5792 5795 5798 5802 5805 5809 5813 5816 5820 5823 5825 5828 5830 5831 5833 5833 5834 5835 5835 5835 5835 5835 5836 5836 5836 5837 5837 5838 5838 5839 5839 5839 5839 5839 5840 5840 5840
5758 5762 5766 5770 5773 5777 5783 5786 5790 5793 5797 5801 5804 5808 5811 5814 5817 5820 5823 5824 5826 5828 5829 5830 5830 5831 5831 5831 5831 5831 5831 5832 5832 5833 5834 5834 5834 5834 5835 5835 5836 5836 5836 5836
5752 5757 5761 5765 5768 5772 5778 5782 5784 5789 5792 5796 5799 5803 5806 5809 5812 5816 5817 5819 5821 5822 5824 5825 5826 5826 5827 5826 5826 5826 5827 5827 5828 5829 5829 5830 5830 5830 5831 5831 5831 5832 5832 5832
5746 5750 5754 5758 5762 5767 5772 5776 5779 5784 5788 5791 5794 5797 5801 5804 5808 5810 5811 5814 5815 5817 5818 5820 5821 5821 5822 5822 5822 5822 5823 5823 5823 5824 5825 5826 5826 5826 5826 5827 5827 5827 5827 5827
5739 5743 5748 5752 5757 5763 5766 5770 5774 5777 5781 5784 5788 5791 5795 5798 5801 5804 5806 5808 5809 5811 5813 5814 5815 5816 5817 5817 5818 5818 5818 5818 5819 5820 5820 5821 5821 5821 5822 5822 5822 5823 5822 5823
5732 5737 5742 5747 5753 5756 5760 5763 5767 5771 5774 5778 5781 5785 5789 5793 5795 5798 5800 5802 5804 5805 5807 5809 5810 5811 5812 5812 5813 5813 5813 5814 5814 5815 5816 5816 5816 5817 5817 5817 5817 5817 5817 5817
5725 5730 5735 5740 5745 5749 5753 5757 5761 5765 5768 5772 5775 5779 5783 5786 5789 5792 5794 5796 5798 5800 5801 5803 5804 5805 5806 5808 5808 5809 5809 5809 5809 5810 5811 5811 5811 5812 5812 5812 5812 5812 5812 5811
5718 5723 5728 5733 5738 5742 5747 5750 5755 5758 5762 5766 5770 5773 5776 5780 5783 5785 5787 5790 5792 5794 5796 5797 5799 5800 5802 5802 5803 5804 5804 5804 5804 5805 5806 5806 5806 5806 5806 5806 5806 5806 5806 5805
5711 5716 5722 5727 5732 5736 5740 5744 5748 5752 5756 5760 5764 5767 5770 5773 5776 5779 5782 5784 5786 5788 5790 5792 5794 5795 5797 5798 5798 5799 5799 5799 5800 5800 5800 5800 5801 5801 5800 5800 5800 5800 5799 5799